Regional Weather Roundup
Issued by NWS

Home | Current Version | Previous Version | Graphics & Text | Print | Product List | Glossary On
Versions: 1 2 3 4 5 6 7 8 9 10 11 12 13 14 15 16 17 18 19 20 21 22 23 24 25 26 27
000
ASUS45 KBOU 162207
RWRCO

WEATHER ROUNDUP FOR COLORADO
NATIONAL WEATHER SERVICE DENVER/BOULDER CO
400 PM MDT WED AUG 16 2017

NOTE: "FAIR" INDICATES FEW OR NO CLOUDS BELOW 12000 FEET WITH NO
SIGNIFICANT WEATHER AND/OR OBSTRUCTIONS TO VISIBILITY.

COZ001>005-013-030-031-162300-
...NORTHWEST COLORADO...

CITY           SKY/WX    TMP DP  RH WIND       PRES   REMARKS
CRAIG          FAIR      77  32  19 NW8       30.17F
HAYDEN         FAIR      77  34  21 W13       30.21S
MEEKER         FAIR      77  32  19 N8        30.17F
RABBIT EARS PA FAIR      55  34  44 NW6G22    30.44S
STEAMBOAT SPGS PTSUNNY   69  39  34 NW9       30.20S
WALDEN         CLOUDY    57  43  58 S8        30.31S
$$

COZ006>008-011-162300-
...WEST CENTRAL VALLEYS...

CITY           SKY/WX    TMP DP  RH WIND       PRES   REMARKS
GRAND JUNCTION FAIR      86  29  12 W12G20    30.04F
MONTROSE       FAIR      81  36  19 N9        30.13F
EAGLE          PTSUNNY   76  36  23 W10       30.17S
RIFLE          FAIR      79  35  20 W14       30.10S
DELTA          FAIR      88  30  12 SW9G16    30.08S
NUCLA          FAIR      82  25  12 NW6       30.16S
$$

COZ017>023-064>068-162300-
...SOUTHWEST COLORADO...

CITY           SKY/WX    TMP DP  RH WIND       PRES   REMARKS
DURANGO        FAIR      80  24  12 W12G21    30.18S
CORTEZ         FAIR      82  22  11 VRB5      30.14F
PAGOSA SPRINGS CLOUDY    74  22  14 SW15G21   30.25S
TELLURIDE      FAIR      69  24  18 W7G16     30.38R
WOLF CREEK PAS FAIR      54  32  43 S12G24    30.59R
$$

COZ009-010-012-014-032>034-037-058>063-162300-
...CENTRAL COLORADO...

CITY           SKY/WX    TMP DP  RH WIND       PRES   REMARKS
ASPEN          PTSUNNY   72  31  22 CALM      30.24S
BUENA VISTA    CLOUDY    71  27  19 W7        30.23S
COPPER MTN     FAIR      55  30  38 W21       30.52S
BERTHOUD PASS  PTSUNNY   45  39  81 NW16      30.55R
COTTONWOOD PAS PTSUNNY   66  27  22 CALM      30.37S
GUNNISON       FAIR      70  32  24 NW6       30.25S
KREMMLING      PTSUNNY   77  32  19 NW7G17    30.22S
LEADVILLE      CLOUDY    59  25  27 W16G22    30.37R
MONARCH PASS   FAIR      52  28  40 W21G31    30.64R
SALIDA         FAIR      77  27  15 SW9       30.27S
SUNLIGHT       FAIR      59  32  36 W6G20     30.48S
WILKERSON PASS PTSUNNY   55  23  28 CALM      30.51R
$$

COZ069>075-162300-
...SAN LUIS VALLEY/SANGRE DE CRISTO MOUNTAINS...

CITY           SKY/WX    TMP DP  RH WIND       PRES   REMARKS
ALAMOSA        FAIR      76  32  20 S9G18     30.22F
DEL NORTE      PTSUNNY   73  37  26 SE12      30.25S
LA VETA PASS   NOT AVBL
SAGUACHE       FAIR      75  30  19 N13G25    30.24S
$$

COZ035-036-038>040-162300-
...NORTHERN COLORADO FRONT RANGE...

CITY           SKY/WX    TMP DP  RH WIND       PRES   REMARKS
DENVER INTL AP PTSUNNY   75  44  33 NW5       30.13S
DMNS CITY PARK   N/A     75  44  33 NE17G23   30.12F
AURORA         PTSUNNY   74  46  36 N7        30.15R
FRONT RANGE AP FAIR      75  45  33 N7        30.14F
ERIE MUNI ARPT FAIR      72  47  40 NW6       30.18R
BOULDER MUN AP FAIR      70  48  46 SW3       30.14R
CENTENNIAL     FAIR      74  42  31 N13G18    30.15S
BROOMFIELD     PTSUNNY   72  46  40 CALM      30.15F
FORT COLLINS   PTSUNNY   69  50  50 SW15      30.12R
LONGMONT       FAIR      75  48  38 CALM      30.14S
$$

COZ041-046-047-076>085-087-088-162300-
...PIKES PEAK/PALMER DIVIDE AND SOUTHERN FOOTHILLS...

CITY           SKY/WX    TMP DP  RH WIND       PRES   REMARKS
COLO. SPRINGS  PTSUNNY   73  48  41 SW10      30.18S
A. F. ACADEMY  FAIR      71  46  41 S12       30.18R
SCHRIEVER AFB  PTSUNNY   71  47  42 E6        30.17S
CHEYENNE MTN   LGT RAIN  61  54  77 N3        30.17R
ELLICOTT       MIX PCPN N/A N/A N/A E8        30.16S
FALCON         FAIR      69  45  41 NE10      30.23R
FORT CARSON    DRIZZLE   67  51  55 N6        30.14F
LIMON          FAIR      74  46  36 NW12G22   30.13R
MONUMENT HILL  PTSUNNY   63  48  59 SE10      30.24R
CANON CITY     SUNNY     82  50  32 MISG      30.08S
WALSENBURG     FAIR      82  46  28 SE9G18    30.13S
TRINIDAD       FAIR      79  45  29 S9        30.12F
$$

COZ042>045-048>051-090-091-162300-
...NORTHEAST COLORADO...

CITY           SKY/WX    TMP DP  RH WIND       PRES   REMARKS
GREELEY ARPT   FAIR      78  45  30 VRB3      30.10S
AKRON          FAIR      75  47  36 N16G26    30.08S
BURLINGTON     FAIR      77  52  41 NW12G25   30.05S
WRAY           NOT AVBL
YUMA           FAIR      73  39  29 NW14G22   30.04S
STERLING       PTSUNNY   77  50  38 N12G18    30.03S
HOLYOKE        FAIR      77  54  44 N15       30.04R
FORT MORGAN    FAIR      79  38  22 N16       30.09R
$$

COZ086-089-092>099-162300-
...SOUTHEAST COLORADO...

CITY           SKY/WX    TMP DP  RH WIND       PRES   REMARKS
PUEBLO         FAIR      84  46  26 SE10      30.06S
LA JUNTA       FAIR      84  48  28 NW7       30.05S
LAMAR          FAIR      82  51  34 N10       30.01R
SPRINGFIELD      N/A     81  53  37 N8        30.06R
$$




USA.gov is the U.S. government's official web portal to all federal, state and local government web resources and services.